Location: Newark
(45.4422°N, 16.2769°E)
Time: 05:59:04
(UTC+00:00)

Explorer 7 - Pass Details

Date: 29 January 2021
Orbit: 484 x 677 km, 50.3° (Epoch: 05 March)

Event Time Altitude Azimuth Distance (km) Brightness Sun altitude
Exits shadow 03:20:29 18° 57° (ENE) 1,301 9.3 -31.4°
Drops below altitude 10° 03:21:41 10° 63° (ENE) 1,752 10.1 -31.2°
Sets 03:24:00 0° 68° (ENE) 2,672 11.4 -30.8°
